When you browse on this site, cookies collect data to enhance your experience and personalize the content and advertising you see.
Visit our Privacy Policy to learn more. By continuing to use the site, you agree to this use of cookies and data.
  • In United Kingdom
  • List of Countries
  • For 7 days
  • Water Temperature
  • Weather Map
  • Weather Widgets
  • user-avatar
    Login

    Hourly Weather Mainz

    Today, 22 August, Thursday

    Time Temperature Precipitation Wind Pressure Humidity
    00:00 +19°C° 0 mm 1 mps 760 mmHg 58%
    01:00 +19°C° 0 mm 1 mps 760 mmHg 61%
    02:00 +18°C° 0 mm 1 mps 760 mmHg 63%
    03:00 +18°C° 0 mm 1 mps 760 mmHg 65%
    04:00 +16°C° 0 mm 1 mps 760 mmHg 66%
    05:00 +16°C° 0 mm 1 mps 760 mmHg 66%
    06:00 +18°C° 0 mm 1 mps 760 mmHg 65%
    07:00 +18°C° 0 mm 1 mps 760 mmHg 65%
    08:00 +20°C° 0 mm 1 mps 760 mmHg 59%
    09:00 +21°C° 0 mm 2 mps 760 mmHg 54%
    10:00 +24°C° 0 mm 2 mps 760 mmHg 49%
    11:00 +25°C° 0 mm 2 mps 760 mmHg 44%
    12:00 +26°C° 0 mm 2 mps 760 mmHg 39%
    13:00 +27°C° 0 mm 2 mps 760 mmHg 35%
    14:00 +27°C° 0 mm 2 mps 759 mmHg 34%
    15:00 +28°C° 0 mm 2 mps 759 mmHg 33%
    16:00 +28°C° 0 mm 2 mps 759 mmHg 32%
    17:00 +27°C° 0 mm 2 mps 759 mmHg 38%
    18:00 +25°C° 0 mm 1 mps 759 mmHg 43%
    19:00 +24°C° 0 mm 1 mps 758 mmHg 48%
    20:00 +23°C° 0 mm 1 mps 759 mmHg 51%
    21:00 +22°C° 0 mm 1 mps 759 mmHg 53%
    22:00 +19°C° 0 mm 0 mps 760 mmHg 56%
    23:00 +18°C° 0 mm 0 mps 760 mmHg 57%

    Tomorrow, 23 August, Friday

    Time Temperature Precipitation Wind Pressure Humidity
    00:00 +20°C° 0 mm 1 mps 760 mmHg 59%
    01:00 +19°C° 0 mm 1 mps 760 mmHg 60%
    02:00 +19°C° 0 mm 1 mps 759 mmHg 61%
    03:00 +18°C° 0 mm 1 mps 759 mmHg 63%
    04:00 +18°C° 0 mm 1 mps 759 mmHg 64%
    05:00 +18°C° 0 mm 1 mps 759 mmHg 64%
    06:00 +19°C° 0 mm 1 mps 759 mmHg 63%
    07:00 +19°C° 0 mm 1 mps 759 mmHg 63%
    08:00 +21°C° 0 mm 1 mps 759 mmHg 58%
    09:00 +23°C° 0 mm 2 mps 759 mmHg 53%
    10:00 +25°C° 0 mm 2 mps 760 mmHg 48%
    11:00 +26°C° 0 mm 2 mps 759 mmHg 44%
    12:00 +27°C° 0 mm 2 mps 759 mmHg 40%
    13:00 +29°C° 0 mm 3 mps 758 mmHg 36%
    14:00 +29°C° 0 mm 2 mps 758 mmHg 35%
    15:00 +29°C° 0 mm 2 mps 757 mmHg 35%
    16:00 +29°C° 0 mm 2 mps 757 mmHg 34%
    17:00 +28°C° 0 mm 2 mps 757 mmHg 38%
    18:00 +27°C° 0 mm 2 mps 757 mmHg 43%
    19:00 +25°C° 0 mm 2 mps 757 mmHg 48%
    20:00 +24°C° 0 mm 1 mps 757 mmHg 50%
    21:00 +23°C° 0 mm 1 mps 757 mmHg 52%
    22:00 +22°C° 0 mm 1 mps 757 mmHg 54%
    23:00 +21°C° 0 mm 1 mps 757 mmHg 57%

    Day after tomorrow, 24 August, Saturday

    Time Temperature Precipitation Wind Pressure Humidity
    00:00 +21°C° 0 mm 1 mps 757 mmHg 60%
    01:00 +20°C° 0 mm 1 mps 757 mmHg 63%
    02:00 +20°C° 0 mm 1 mps 757 mmHg 66%
    03:00 +19°C° 0 mm 1 mps 757 mmHg 69%
    04:00 +19°C° 0 mm 1 mps 757 mmHg 72%
    05:00 +19°C° 0 mm 1 mps 756 mmHg 71%
    06:00 +19°C° 0 mm 1 mps 756 mmHg 71%
    07:00 +20°C° 0 mm 1 mps 756 mmHg 71%
    08:00 +21°C° 0 mm 2 mps 756 mmHg 65%
    09:00 +24°C° 0 mm 2 mps 756 mmHg 59%
    10:00 +26°C° 0 mm 2 mps 756 mmHg 53%
    11:00 +27°C° 0 mm 2 mps 756 mmHg 49%
    12:00 +28°C° 0 mm 2 mps 756 mmHg 45%
    13:00 +30°C° 0 mm 2 mps 755 mmHg 41%
    14:00 +30°C° 0 mm 1 mps 755 mmHg 41%
    15:00 +31°C° 0 mm 1 mps 754 mmHg 41%
    16:00 +31°C° 0 mm 1 mps 754 mmHg 40%
    17:00 +30°C° 0 mm 1 mps 754 mmHg 45%
    18:00 +28°C° 0 mm 1 mps 754 mmHg 51%
    19:00 +27°C° 0 mm 1 mps 754 mmHg 56%
    20:00 +26°C° 0 mm 1 mps 754 mmHg 59%
    21:00 +25°C° 0 mm 1 mps 754 mmHg 62%
    22:00 +22°C° 0 mm 0 mps 754 mmHg 65%
    23:00 +23°C° 0 mm 1 mps 754 mmHg 67%

    25 August, Sunday

    Time Temperature Precipitation Wind Pressure Humidity
    00:00 +23°C° 0 mm 1 mps 754 mmHg 68%
    01:00 +22°C° 0 mm 1 mps 754 mmHg 69%
    02:00 +22°C° 0 mm 1 mps 754 mmHg 71%
    03:00 +21°C° 0 mm 1 mps 754 mmHg 72%
    04:00 +21°C° 0 mm 1 mps 754 mmHg 74%
    05:00 +21°C° 0 mm 1 mps 754 mmHg 74%
    06:00 +22°C° 0 mm 1 mps 754 mmHg 73%
    07:00 +22°C° 0 mm 1 mps 754 mmHg 73%
    08:00 +24°C° 0 mm 1 mps 754 mmHg 68%
    09:00 +26°C° 0 mm 1 mps 754 mmHg 63%
    10:00 +28°C° 0 mm 1 mps 754 mmHg 58%
    11:00 +29°C° 0 mm 1 mps 754 mmHg 54%
    12:00 +30°C° 0 mm 1 mps 754 mmHg 50%
    13:00 +32°C° 0 mm 1 mps 754 mmHg 46%
    14:00 +32°C° 0 mm 1 mps 754 mmHg 43%
    15:00 +32°C° 0 mm 1 mps 753 mmHg 40%
    16:00 +32°C° 0 mm 1 mps 753 mmHg 38%
    17:00 +31°C° 0 mm 1 mps 753 mmHg 42%
    18:00 +30°C° 0 mm 1 mps 753 mmHg 46%
    19:00 +28°C° 0 mm 1 mps 753 mmHg 51%
    20:00 +27°C° 0 mm 1 mps 754 mmHg 53%
    21:00 +24°C° 0 mm 0 mps 754 mmHg 56%
    22:00 +23°C° 0 mm 0 mps 755 mmHg 58%
    23:00 +23°C° 0 mm 0 mps 755 mmHg 60%

    26 August, Monday

    Time Temperature Precipitation Wind Pressure Humidity
    00:00 +22°C° 0 mm 0 mps 755 mmHg 62%
    01:00 +24°C° 0 mm 1 mps 754 mmHg 63%
    02:00 +23°C° 0 mm 1 mps 755 mmHg 65%
    03:00 +23°C° 0 mm 1 mps 755 mmHg 67%
    04:00 +23°C° 0 mm 1 mps 755 mmHg 69%
    05:00 +23°C° 0 mm 1 mps 755 mmHg 68%
    06:00 +23°C° 0 mm 1 mps 755 mmHg 68%
    07:00 +24°C° 0 mm 1 mps 755 mmHg 67%
    08:00 +26°C° 0 mm 1 mps 755 mmHg 61%
    09:00 +28°C° 0 mm 1 mps 755 mmHg 55%
    10:00 +30°C° 0 mm 1 mps 755 mmHg 48%
    11:00 +31°C° 0 mm 1 mps 755 mmHg 44%
    12:00 +32°C° 0 mm 2 mps 755 mmHg 40%
    13:00 +34°C° 0 mm 2 mps 755 mmHg 36%
    14:00 +34°C° 0 mm 2 mps 755 mmHg 35%
    15:00 +34°C° 0 mm 2 mps 754 mmHg 33%
    16:00 +34°C° 0 mm 2 mps 754 mmHg 32%
    17:00 +32°C° 0 mm 1 mps 754 mmHg 37%
    18:00 +30°C° 0 mm 1 mps 754 mmHg 42%
    19:00 +29°C° 0 mm 1 mps 754 mmHg 46%
    20:00 +28°C° 0 mm 1 mps 754 mmHg 49%
    21:00 +27°C° 0 mm 1 mps 754 mmHg 51%
    22:00 +24°C° 0 mm 0 mps 755 mmHg 54%
    23:00 +25°C° 0 mm 1 mps 755 mmHg 55%

    27 August, Tuesday

    Time Temperature Precipitation Wind Pressure Humidity
    00:00 +24°C° 0 mm 1 mps 755 mmHg 56%
    01:00 +24°C° 0 mm 1 mps 754 mmHg 57%
    02:00 +23°C° 0 mm 1 mps 754 mmHg 57%
    03:00 +23°C° 0 mm 1 mps 754 mmHg 58%
    04:00 +23°C° 0 mm 1 mps 754 mmHg 59%
    05:00 +23°C° 0 mm 1 mps 754 mmHg 60%
    06:00 +23°C° 0 mm 1 mps 754 mmHg 61%
    07:00 +23°C° 0 mm 1 mps 754 mmHg 63%
    08:00 +25°C° 0 mm 1 mps 754 mmHg 59%
    09:00 +27°C° 0 mm 1 mps 754 mmHg 54%
    10:00 +29°C° 0 mm 2 mps 753 mmHg 50%
    11:00 +30°C° 0 mm 2 mps 753 mmHg 46%
    12:00 +31°C° 0 mm 2 mps 753 mmHg 41%
    13:00 +34°C° 0 mm 2 mps 753 mmHg 36%
    14:00 +34°C° 0 mm 2 mps 752 mmHg 35%
    15:00 +34°C° 0 mm 2 mps 752 mmHg 35%
    16:00 +34°C° 0 mm 2 mps 751 mmHg 34%
    17:00 +32°C° 0 mm 1 mps 751 mmHg 39%
    18:00 +30°C° 0 mm 1 mps 751 mmHg 44%
    19:00 +29°C° 0 mm 1 mps 751 mmHg 49%
    20:00 +28°C° 0 mm 1 mps 751 mmHg 52%
    21:00 +27°C° 0 mm 1 mps 751 mmHg 55%
    22:00 +26°C° 0 mm 1 mps 751 mmHg 58%
    23:00 +25°C° 0 mm 1 mps 751 mmHg 61%
    Show more